Location: Newark
(36.1358°N, 115.1208°W)
Time: 02:16:28
(UTC+00:00)

S-56A Canister/Altair - Pass Details

Date: 19 February 2020
Orbit: 634 x 2498 km, 38.9° (Epoch: 06 April)

Event Time Altitude Azimuth Distance (km) Brightness Sun altitude
Rises 03:44:46 0° 283° (WNW) 5,161 13.0 -28.9°
Reaches altitude 10° 03:50:51 10° 260° (W) 3,690 11.8 -30.2°
Maximum altitude 03:54:36 13° 235° (SW) 3,133 11.1 -30.9°
Drops below altitude 10° 03:57:52 10° 210° (SSW) 3,087 10.8 -31.6°
Enters shadow 04:01:42 - 185° (S) 3,609 10.9 -32.3°
